Year,Month,Day,Hour,Minute,Value (Times are PST for temperature in C)
2009,11,19,04,49,7.40
2009,11,19,04,50,7.40
2009,11,19,04,51,7.40
2009,11,19,04,52,7.40
2009,11,19,04,53,7.40
2009,11,19,04,54,7.30
2009,11,19,04,55,7.30
2009,11,19,04,56,7.30
2009,11,19,04,57,7.40
2009,11,19,04,58,7.40
2009,11,19,04,59,7.40
2009,11,19,05,00,7.40
2009,11,19,05,01,7.40
2009,11,19,05,02,7.40
2009,11,19,05,03,7.40
2009,11,19,05,04,7.40
2009,11,19,05,05,7.40
2009,11,19,05,06,7.40
2009,11,19,05,07,7.40
2009,11,19,05,08,7.40
2009,11,19,05,09,7.40
2009,11,19,05,10,7.40
2009,11,19,05,11,7.40
2009,11,19,05,12,7.40
2009,11,19,05,13,7.40
2009,11,19,05,14,7.40
2009,11,19,05,15,7.40
2009,11,19,05,16,7.40
2009,11,19,05,17,7.40
2009,11,19,05,18,7.40
2009,11,19,05,19,7.40
2009,11,19,05,20,7.40
2009,11,19,05,21,7.40
2009,11,19,05,22,7.50
2009,11,19,05,23,7.50
2009,11,19,05,24,7.50
2009,11,19,05,25,7.50
2009,11,19,05,26,7.50
2009,11,19,05,27,7.50
2009,11,19,05,28,7.50
2009,11,19,05,29,7.50
2009,11,19,05,30,7.50
2009,11,19,05,31,7.50
2009,11,19,05,32,7.50
2009,11,19,05,33,7.50
2009,11,19,05,34,7.50
2009,11,19,05,35,7.50
2009,11,19,05,36,7.50
2009,11,19,05,37,7.50
2009,11,19,05,38,7.50
2009,11,19,05,39,7.50
2009,11,19,05,40,7.50
2009,11,19,05,41,7.50
2009,11,19,05,42,7.50
2009,11,19,05,43,7.50
2009,11,19,05,44,7.50
2009,11,19,05,45,7.50
2009,11,19,05,46,7.50
2009,11,19,05,47,7.50
2009,11,19,05,48,7.40
2009,11,19,05,49,7.40
2009,11,19,05,50,7.40
2009,11,19,05,51,7.40
2009,11,19,05,52,7.40
2009,11,19,05,53,7.50
2009,11,19,05,54,7.40
2009,11,19,05,55,7.40
2009,11,19,05,56,7.40
2009,11,19,05,57,7.40
2009,11,19,05,58,7.40
2009,11,19,05,59,7.40
2009,11,19,06,00,7.40
2009,11,19,06,01,7.40
2009,11,19,06,02,7.40
2009,11,19,06,03,7.40
2009,11,19,06,04,7.40
2009,11,19,06,05,7.40
2009,11,19,06,06,7.40
2009,11,19,06,07,7.40
2009,11,19,06,08,7.40
2009,11,19,06,09,7.40
2009,11,19,06,10,7.40
2009,11,19,06,11,7.40
2009,11,19,06,12,7.40
2009,11,19,06,13,7.40
2009,11,19,06,14,7.40
2009,11,19,06,15,7.40
2009,11,19,06,16,7.40
2009,11,19,06,17,7.40
2009,11,19,06,18,7.40
2009,11,19,06,19,7.40
2009,11,19,06,20,7.40
2009,11,19,06,21,7.40
2009,11,19,06,22,7.40
2009,11,19,06,23,7.40
2009,11,19,06,24,7.40
2009,11,19,06,25,7.40
2009,11,19,06,26,7.40
2009,11,19,06,27,7.40
2009,11,19,06,28,7.40
2009,11,19,06,29,7.40
2009,11,19,06,30,7.40
2009,11,19,06,31,7.40
2009,11,19,06,32,7.40
2009,11,19,06,33,7.40
2009,11,19,06,34,7.40
2009,11,19,06,35,7.40
2009,11,19,06,36,7.50
2009,11,19,06,37,7.50
2009,11,19,06,38,7.50
2009,11,19,06,39,7.50
2009,11,19,06,40,7.50
2009,11,19,06,41,7.50
2009,11,19,06,42,7.50
2009,11,19,06,43,7.50
2009,11,19,06,44,7.50
2009,11,19,06,45,7.50
2009,11,19,06,46,7.50
2009,11,19,06,47,7.50
2009,11,19,06,48,7.50
2009,11,19,06,49,7.50
2009,11,19,06,50,7.50
2009,11,19,06,51,7.50
2009,11,19,06,52,7.50
2009,11,19,06,53,7.50
2009,11,19,06,54,7.50
2009,11,19,06,55,7.50
2009,11,19,06,56,7.50
2009,11,19,06,57,7.50
2009,11,19,06,58,7.50
2009,11,19,06,59,7.50
2009,11,19,07,00,7.50
2009,11,19,07,01,7.50
2009,11,19,07,02,7.50
2009,11,19,07,03,7.50
2009,11,19,07,04,7.50
2009,11,19,07,05,7.60
2009,11,19,07,06,7.60
2009,11,19,07,07,7.60
2009,11,19,07,08,7.60
2009,11,19,07,09,7.60
2009,11,19,07,10,7.60
2009,11,19,07,11,7.60
2009,11,19,07,12,7.60
2009,11,19,07,13,7.60
2009,11,19,07,14,7.50
2009,11,19,07,15,7.50
2009,11,19,07,16,7.60
2009,11,19,07,17,7.50
2009,11,19,07,18,7.60
2009,11,19,07,19,7.60
2009,11,19,07,20,7.60
2009,11,19,07,21,7.60
2009,11,19,07,22,7.50
2009,11,19,07,23,7.60
2009,11,19,07,24,7.60
2009,11,19,07,25,7.60
2009,11,19,07,26,7.60
2009,11,19,07,27,7.60
2009,11,19,07,28,7.60
2009,11,19,07,29,7.60
2009,11,19,07,30,7.60
2009,11,19,07,31,7.60
2009,11,19,07,32,7.60
2009,11,19,07,33,7.60
2009,11,19,07,34,7.60
2009,11,19,07,35,7.60
2009,11,19,07,36,7.60
2009,11,19,07,37,7.60
2009,11,19,07,38,7.60
2009,11,19,07,39,7.60
2009,11,19,07,40,7.60
2009,11,19,07,41,7.60
2009,11,19,07,42,7.60
2009,11,19,07,43,7.60
2009,11,19,07,44,7.60
2009,11,19,07,45,7.60
2009,11,19,07,46,7.60
2009,11,19,07,47,7.60
2009,11,19,07,48,7.60
2009,11,19,07,49,7.60
2009,11,19,07,50,7.60
2009,11,19,07,51,7.60
2009,11,19,07,52,7.60
2009,11,19,07,53,7.60
2009,11,19,07,54,7.60
2009,11,19,07,55,7.60
2009,11,19,07,56,7.60
2009,11,19,07,57,7.60
2009,11,19,07,58,7.60
2009,11,19,07,59,7.60
2009,11,19,08,00,7.60
2009,11,19,08,01,7.60
2009,11,19,08,02,7.60
2009,11,19,08,03,7.60
2009,11,19,08,04,7.60
2009,11,19,08,05,7.60
2009,11,19,08,06,7.60
2009,11,19,08,07,7.60
2009,11,19,08,08,7.60
2009,11,19,08,09,7.60
2009,11,19,08,10,7.60
2009,11,19,08,11,7.60
2009,11,19,08,12,7.60
2009,11,19,08,13,7.60
2009,11,19,08,14,7.60
2009,11,19,08,15,7.50
2009,11,19,08,16,7.50
2009,11,19,08,17,7.50
2009,11,19,08,18,7.50
2009,11,19,08,19,7.50
2009,11,19,08,20,7.50
2009,11,19,08,21,7.50
2009,11,19,08,22,7.50
2009,11,19,08,23,7.50
2009,11,19,08,24,7.50
2009,11,19,08,25,7.50
2009,11,19,08,26,7.50
2009,11,19,08,27,7.50
2009,11,19,08,28,7.60
2009,11,19,08,29,7.60
2009,11,19,08,30,7.60
2009,11,19,08,31,7.60
2009,11,19,08,32,7.60
2009,11,19,08,33,7.60
2009,11,19,08,34,7.60
2009,11,19,08,35,7.60
2009,11,19,08,36,7.60
2009,11,19,08,37,7.60
2009,11,19,08,38,7.60
2009,11,19,08,39,7.60
2009,11,19,08,40,7.60
2009,11,19,08,41,7.60
2009,11,19,08,42,7.60
2009,11,19,08,43,7.60
2009,11,19,08,44,7.60
2009,11,19,08,45,7.60
2009,11,19,08,46,7.60
2009,11,19,08,47,7.60
2009,11,19,08,48,7.60
2009,11,19,08,49,7.60
2009,11,19,08,50,7.60
2009,11,19,08,51,7.60
2009,11,19,08,52,7.60
2009,11,19,08,53,7.60
2009,11,19,08,54,7.60
2009,11,19,08,55,7.60
2009,11,19,08,56,7.60
2009,11,19,08,57,7.60
2009,11,19,08,58,7.60
2009,11,19,08,59,7.60
2009,11,19,09,00,7.60
2009,11,19,09,01,7.60
2009,11,19,09,02,7.60
2009,11,19,09,03,7.60
2009,11,19,09,04,7.60
2009,11,19,09,05,7.60
2009,11,19,09,06,7.60
2009,11,19,09,07,7.50
2009,11,19,09,08,7.50
2009,11,19,09,09,7.50
2009,11,19,09,10,7.50
2009,11,19,09,11,7.50
2009,11,19,09,12,7.50
2009,11,19,09,13,7.50
2009,11,19,09,14,7.50
2009,11,19,09,15,7.50
2009,11,19,09,16,7.50
2009,11,19,09,17,7.50
2009,11,19,09,18,7.50
2009,11,19,09,19,7.50
2009,11,19,09,20,7.50
2009,11,19,09,21,7.50
2009,11,19,09,22,7.50
2009,11,19,09,23,7.50
2009,11,19,09,24,7.40
2009,11,19,09,25,7.40
2009,11,19,09,26,7.40
2009,11,19,09,27,7.40
2009,11,19,09,28,7.40
2009,11,19,09,29,7.40
2009,11,19,09,30,7.40
2009,11,19,09,31,7.40
2009,11,19,09,32,7.40
2009,11,19,09,33,7.40
2009,11,19,09,34,7.40
2009,11,19,09,35,7.40
2009,11,19,09,36,7.40
2009,11,19,09,37,7.40
2009,11,19,09,38,7.40
2009,11,19,09,39,7.40
2009,11,19,09,40,7.40
2009,11,19,09,41,7.40
2009,11,19,09,42,7.40
2009,11,19,09,43,7.40
2009,11,19,09,44,7.40
2009,11,19,09,45,7.40
2009,11,19,09,46,7.40
2009,11,19,09,47,7.40
2009,11,19,09,48,7.40
2009,11,19,09,49,7.40
2009,11,19,09,50,7.30
2009,11,19,09,51,7.30
2009,11,19,09,52,7.30
2009,11,19,09,53,7.30
2009,11,19,09,54,7.30
2009,11,19,09,55,7.30
2009,11,19,09,56,7.30
2009,11,19,09,57,7.30
2009,11,19,09,58,7.30
2009,11,19,09,59,7.30
2009,11,19,10,00,7.30
2009,11,19,10,01,7.30
2009,11,19,10,02,7.30
2009,11,19,10,03,7.30
2009,11,19,10,04,7.30
2009,11,19,10,05,7.20
2009,11,19,10,06,7.20
2009,11,19,10,07,7.20
2009,11,19,10,08,7.20
2009,11,19,10,09,7.20
2009,11,19,10,10,7.20
2009,11,19,10,11,7.20
2009,11,19,10,12,7.20
2009,11,19,10,13,7.20
2009,11,19,10,14,7.20
2009,11,19,10,15,7.20
2009,11,19,10,16,7.20
2009,11,19,10,17,7.20
2009,11,19,10,18,7.20
2009,11,19,10,19,7.20
2009,11,19,10,20,7.20
2009,11,19,10,21,7.20
2009,11,19,10,22,7.10
2009,11,19,10,23,7.10
2009,11,19,10,24,7.00
2009,11,19,10,25,6.90
2009,11,19,10,26,6.90
2009,11,19,10,27,6.90
2009,11,19,10,28,6.80
2009,11,19,10,29,6.70
2009,11,19,10,30,6.70
2009,11,19,10,31,6.60
2009,11,19,10,32,6.60
2009,11,19,10,33,6.60
2009,11,19,10,34,6.60
2009,11,19,10,35,6.60
2009,11,19,10,36,6.60
2009,11,19,10,37,6.60
2009,11,19,10,38,6.60
2009,11,19,10,39,6.60
2009,11,19,10,40,6.60
2009,11,19,10,41,6.70
2009,11,19,10,42,6.70
2009,11,19,10,43,6.70
2009,11,19,10,44,6.70
2009,11,19,10,45,6.70
2009,11,19,10,46,6.70
2009,11,19,10,47,6.70
2009,11,19,10,48,6.70
2009,11,19,10,49,6.80
2009,11,19,10,50,6.80
2009,11,19,10,51,6.80
2009,11,19,10,52,6.80
2009,11,19,10,53,6.80
2009,11,19,10,54,6.80
2009,11,19,10,55,6.80
2009,11,19,10,56,6.80
2009,11,19,10,57,6.90
2009,11,19,10,58,6.90
2009,11,19,10,59,6.90
2009,11,19,11,00,6.90
2009,11,19,11,01,6.90
2009,11,19,11,02,7.00
2009,11,19,11,03,7.00
2009,11,19,11,04,7.10
2009,11,19,11,05,7.10
2009,11,19,11,06,7.10
2009,11,19,11,07,7.10
2009,11,19,11,08,7.20
2009,11,19,11,09,7.20
2009,11,19,11,10,7.20
2009,11,19,11,11,7.20
2009,11,19,11,12,7.20
2009,11,19,11,13,7.20
2009,11,19,11,14,7.20
2009,11,19,11,15,7.20
2009,11,19,11,16,7.20
2009,11,19,11,17,7.20
2009,11,19,11,18,7.20
2009,11,19,11,19,7.20
2009,11,19,11,20,7.20
2009,11,19,11,21,7.20
2009,11,19,11,22,7.20
2009,11,19,11,23,7.20
2009,11,19,11,24,7.20
2009,11,19,11,25,7.20
2009,11,19,11,26,7.20
2009,11,19,11,27,7.20
2009,11,19,11,28,7.20
2009,11,19,11,29,7.20
2009,11,19,11,30,7.20
2009,11,19,11,31,7.20
2009,11,19,11,32,7.20
2009,11,19,11,33,7.20
2009,11,19,11,34,7.20
2009,11,19,11,35,7.20
2009,11,19,11,36,7.20
2009,11,19,11,37,7.20
2009,11,19,11,38,7.20
2009,11,19,11,39,7.20
2009,11,19,11,40,7.20
2009,11,19,11,41,7.20
2009,11,19,11,42,7.10
2009,11,19,11,43,7.10
2009,11,19,11,44,7.00
2009,11,19,11,45,7.00
2009,11,19,11,46,6.90
2009,11,19,11,47,6.90
2009,11,19,11,48,6.90
2009,11,19,11,49,6.90
2009,11,19,11,50,6.80
2009,11,19,11,51,6.80
2009,11,19,11,52,6.80
2009,11,19,11,53,6.80
2009,11,19,11,54,6.80
2009,11,19,11,55,6.80
2009,11,19,11,56,6.80
2009,11,19,11,57,6.80
2009,11,19,11,58,6.70
2009,11,19,11,59,6.70
2009,11,19,12,00,6.70
2009,11,19,12,01,6.70
2009,11,19,12,02,6.70
2009,11,19,12,03,6.70
2009,11,19,12,04,6.70
2009,11,19,12,05,6.70
2009,11,19,12,06,6.70
2009,11,19,12,07,6.70
2009,11,19,12,08,6.70
2009,11,19,12,09,6.70
2009,11,19,12,10,6.70
2009,11,19,12,11,6.70
2009,11,19,12,12,6.70
2009,11,19,12,13,6.70
2009,11,19,12,14,6.70
2009,11,19,12,15,6.70
2009,11,19,12,16,6.70
2009,11,19,12,17,6.70
2009,11,19,12,18,6.70
2009,11,19,12,19,6.60
2009,11,19,12,20,6.60
2009,11,19,12,21,6.60
2009,11,19,12,22,6.60
2009,11,19,12,23,6.60
2009,11,19,12,24,6.60
2009,11,19,12,25,6.60
2009,11,19,12,26,6.60
2009,11,19,12,27,6.60
2009,11,19,12,28,6.60
2009,11,19,12,29,6.60
2009,11,19,12,30,6.50
2009,11,19,12,31,6.50
2009,11,19,12,32,6.50
2009,11,19,12,33,6.50
2009,11,19,12,34,6.50
2009,11,19,12,35,6.50
2009,11,19,12,36,6.40
2009,11,19,12,37,6.40
2009,11,19,12,38,6.40
2009,11,19,12,39,6.40
2009,11,19,12,40,6.40
2009,11,19,12,41,6.40
2009,11,19,12,42,6.40
2009,11,19,12,43,6.40
2009,11,19,12,44,6.40
2009,11,19,12,45,6.40
2009,11,19,12,46,6.40
2009,11,19,12,47,6.40
2009,11,19,12,48,6.40
2009,11,19,12,49,6.40
2009,11,19,12,50,6.40
2009,11,19,12,51,6.40
2009,11,19,12,52,6.40
2009,11,19,12,53,6.40
2009,11,19,12,54,6.40
2009,11,19,12,55,6.40
2009,11,19,12,56,6.40
2009,11,19,12,57,6.40
2009,11,19,12,58,6.40
2009,11,19,12,59,6.40
2009,11,19,13,00,6.40
2009,11,19,13,01,6.40
2009,11,19,13,02,6.40
2009,11,19,13,03,6.40
2009,11,19,13,04,6.40
2009,11,19,13,05,6.40
2009,11,19,13,06,6.30
2009,11,19,13,07,6.40
2009,11,19,13,08,6.40
2009,11,19,13,09,6.30
2009,11,19,13,10,6.40
2009,11,19,13,11,6.30
2009,11,19,13,12,6.30
2009,11,19,13,13,6.30
2009,11,19,13,14,6.30
2009,11,19,13,15,6.30
2009,11,19,13,16,6.30
2009,11,19,13,17,6.30
2009,11,19,13,18,6.30
2009,11,19,13,19,6.30
2009,11,19,13,20,6.30
2009,11,19,13,21,6.30
2009,11,19,13,22,6.30
2009,11,19,13,23,6.30
2009,11,19,13,24,6.40
2009,11,19,13,25,6.40
2009,11,19,13,26,6.40
2009,11,19,13,27,6.40
2009,11,19,13,28,6.40
2009,11,19,13,29,6.40
2009,11,19,13,30,6.40
2009,11,19,13,31,6.40
2009,11,19,13,32,6.40
2009,11,19,13,33,6.40
2009,11,19,13,34,6.40
2009,11,19,13,35,6.40
2009,11,19,13,36,6.40
2009,11,19,13,37,6.40
2009,11,19,13,38,6.40
2009,11,19,13,39,6.40
2009,11,19,13,40,6.40
2009,11,19,13,41,6.40
2009,11,19,13,42,6.50
2009,11,19,13,43,6.50
2009,11,19,13,44,6.50
2009,11,19,13,45,6.60
2009,11,19,13,46,6.60
2009,11,19,13,47,6.60
2009,11,19,13,48,6.60
2009,11,19,13,49,6.60
2009,11,19,13,50,6.60
2009,11,19,13,51,6.70
2009,11,19,13,52,6.70
2009,11,19,13,53,6.70
2009,11,19,13,54,6.70
2009,11,19,13,55,6.70
2009,11,19,13,56,6.80
2009,11,19,13,57,6.80
2009,11,19,13,58,6.80
2009,11,19,13,59,6.80
2009,11,19,14,00,6.80
2009,11,19,14,01,6.90
2009,11,19,14,02,6.90
2009,11,19,14,03,6.90
2009,11,19,14,04,6.90
2009,11,19,14,05,6.90
2009,11,19,14,06,6.90
2009,11,19,14,07,6.90
2009,11,19,14,08,7.00
2009,11,19,14,09,7.00
2009,11,19,14,10,7.00
2009,11,19,14,11,7.10
2009,11,19,14,12,7.10
2009,11,19,14,13,7.10
2009,11,19,14,14,7.10
2009,11,19,14,15,7.10
2009,11,19,14,16,7.20
2009,11,19,14,17,7.20
2009,11,19,14,18,7.20
2009,11,19,14,19,7.20
2009,11,19,14,20,7.30
2009,11,19,14,21,7.30
2009,11,19,14,22,7.30
2009,11,19,14,23,7.30
2009,11,19,14,24,7.40
2009,11,19,14,25,7.50
2009,11,19,14,26,7.50
2009,11,19,14,27,7.60
2009,11,19,14,28,7.60
2009,11,19,14,29,7.60
2009,11,19,14,30,7.70
2009,11,19,14,31,7.70
2009,11,19,14,32,7.70
2009,11,19,14,33,7.80
2009,11,19,14,34,7.80
2009,11,19,14,35,7.80
2009,11,19,14,36,7.80
2009,11,19,14,37,7.80
2009,11,19,14,38,7.80
2009,11,19,14,39,7.80
2009,11,19,14,40,7.90
2009,11,19,14,41,7.90
2009,11,19,14,42,8.00
2009,11,19,14,43,8.10
2009,11,19,14,44,8.20
2009,11,19,14,45,8.20
2009,11,19,14,46,8.30
2009,11,19,14,47,8.30
2009,11,19,14,48,8.30
2009,11,19,14,49,8.40
2009,11,19,14,50,8.40
2009,11,19,14,51,8.40
2009,11,19,14,52,8.40
2009,11,19,14,53,8.40
2009,11,19,14,54,8.40
2009,11,19,14,55,8.50
2009,11,19,14,56,8.50
2009,11,19,14,57,8.50
2009,11,19,14,58,8.50
2009,11,19,14,59,8.50
2009,11,19,15,00,8.50
2009,11,19,15,01,8.50
2009,11,19,15,02,8.50
2009,11,19,15,03,8.60
2009,11,19,15,04,8.60
2009,11,19,15,05,8.60
2009,11,19,15,06,8.60
2009,11,19,15,07,8.60
2009,11,19,15,08,8.70
2009,11,19,15,09,8.70
2009,11,19,15,10,8.70
2009,11,19,15,11,8.70
2009,11,19,15,12,8.80
2009,11,19,15,13,8.80
2009,11,19,15,14,8.80
2009,11,19,15,15,8.90
2009,11,19,15,16,8.90
2009,11,19,15,17,8.90
2009,11,19,15,18,8.90
2009,11,19,15,19,8.90
2009,11,19,15,20,9.00
2009,11,19,15,21,9.00
2009,11,19,15,22,9.00
2009,11,19,15,23,9.00
2009,11,19,15,24,9.00
2009,11,19,15,25,9.10
2009,11,19,15,26,9.10
2009,11,19,15,27,9.10
2009,11,19,15,28,9.10
2009,11,19,15,29,9.10
2009,11,19,15,30,9.10
2009,11,19,15,31,9.10
2009,11,19,15,32,9.10
2009,11,19,15,33,9.10
2009,11,19,15,34,9.10
2009,11,19,15,35,9.10
2009,11,19,15,36,9.10
2009,11,19,15,37,9.10
2009,11,19,15,38,9.10
2009,11,19,15,39,9.10
2009,11,19,15,40,9.20
2009,11,19,15,41,9.20
2009,11,19,15,42,9.20
2009,11,19,15,43,9.20
2009,11,19,15,44,9.20
2009,11,19,15,45,9.20
2009,11,19,15,46,9.20
2009,11,19,15,47,9.20
2009,11,19,15,48,9.20
2009,11,19,15,49,9.20
2009,11,19,15,50,9.20
2009,11,19,15,51,9.20
2009,11,19,15,52,9.20
2009,11,19,15,53,9.30
2009,11,19,15,54,9.30
2009,11,19,15,55,9.30
2009,11,19,15,56,9.30
2009,11,19,15,57,9.30
2009,11,19,15,58,9.30
2009,11,19,15,59,9.30
2009,11,19,16,00,9.30
2009,11,19,16,01,9.30
2009,11,19,16,02,9.30
2009,11,19,16,03,9.30
2009,11,19,16,04,9.30
2009,11,19,16,05,9.30
2009,11,19,16,06,9.30
2009,11,19,16,07,9.30
2009,11,19,16,08,9.30
2009,11,19,16,09,9.30
2009,11,19,16,10,9.30
2009,11,19,16,11,9.30
2009,11,19,16,12,9.20
2009,11,19,16,13,9.30
2009,11,19,16,14,9.20
2009,11,19,16,15,9.20
2009,11,19,16,16,9.30
2009,11,19,16,17,9.30
2009,11,19,16,18,9.30
2009,11,19,16,19,9.30
2009,11,19,16,20,9.30
2009,11,19,16,21,9.30
2009,11,19,16,22,9.20
2009,11,19,16,23,9.20
2009,11,19,16,24,9.30
2009,11,19,16,25,9.20
2009,11,19,16,26,9.30
2009,11,19,16,27,9.20
2009,11,19,16,28,9.30
2009,11,19,16,29,9.30
2009,11,19,16,30,9.30
2009,11,19,16,31,9.30
2009,11,19,16,32,9.20
2009,11,19,16,33,9.30
2009,11,19,16,34,9.30
2009,11,19,16,35,9.30
2009,11,19,16,36,9.30
2009,11,19,16,37,9.30
2009,11,19,16,38,9.30
2009,11,19,16,39,9.30
2009,11,19,16,40,9.30
2009,11,19,16,41,9.40
2009,11,19,16,42,9.40
2009,11,19,16,43,9.40
2009,11,19,16,44,9.40
2009,11,19,16,45,9.40
2009,11,19,16,46,9.40
2009,11,19,16,47,9.40
2009,11,19,16,48,9.40
2009,11,19,16,49,9.40
2009,11,19,16,50,9.40
2009,11,19,16,51,9.40
2009,11,19,16,52,9.40
2009,11,19,16,53,9.40
2009,11,19,16,54,9.40
2009,11,19,16,55,9.40
2009,11,19,16,56,9.40
2009,11,19,16,57,9.40
2009,11,19,16,58,9.40
2009,11,19,16,59,9.50
2009,11,19,17,00,9.50
2009,11,19,17,01,9.50
2009,11,19,17,02,9.50
2009,11,19,17,03,9.60
2009,11,19,17,04,9.60
2009,11,19,17,05,9.60
2009,11,19,17,06,9.60
2009,11,19,17,07,9.60
2009,11,19,17,08,9.60
2009,11,19,17,09,9.60
2009,11,19,17,10,9.60
2009,11,19,17,11,9.60
2009,11,19,17,12,9.60
2009,11,19,17,13,9.60
2009,11,19,17,14,9.60
2009,11,19,17,15,9.60
2009,11,19,17,16,9.60
2009,11,19,17,17,9.60
2009,11,19,17,18,9.60
2009,11,19,17,19,9.60
2009,11,19,17,20,9.60
2009,11,19,17,21,9.60
2009,11,19,17,22,9.60
2009,11,19,17,23,9.60
2009,11,19,17,24,9.60
2009,11,19,17,25,9.60
2009,11,19,17,26,9.60
2009,11,19,17,27,9.60
2009,11,19,17,28,9.60
2009,11,19,17,29,9.60
2009,11,19,17,30,9.60
2009,11,19,17,31,9.60
2009,11,19,17,32,9.70
2009,11,19,17,33,9.70
2009,11,19,17,34,9.70
2009,11,19,17,35,9.70
2009,11,19,17,36,9.70
2009,11,19,17,37,9.70
2009,11,19,17,38,9.80
2009,11,19,17,39,9.80
2009,11,19,17,40,9.80
2009,11,19,17,41,9.80
2009,11,19,17,42,9.80
2009,11,19,17,43,9.80
2009,11,19,17,44,9.80
2009,11,19,17,45,9.80
2009,11,19,17,46,9.80
2009,11,19,17,47,9.80
2009,11,19,17,48,9.80
2009,11,19,17,49,9.80
2009,11,19,17,50,9.80
2009,11,19,17,51,9.90
2009,11,19,17,52,9.90
2009,11,19,17,53,9.90
2009,11,19,17,54,9.90
2009,11,19,17,55,9.90
2009,11,19,17,56,9.90
2009,11,19,17,57,9.90
2009,11,19,17,58,9.90
2009,11,19,17,59,9.90
2009,11,19,18,00,9.90
2009,11,19,18,01,9.90
2009,11,19,18,02,9.90
2009,11,19,18,03,9.90
2009,11,19,18,04,10.00
2009,11,19,18,05,10.00
2009,11,19,18,06,10.10
2009,11,19,18,07,10.10
2009,11,19,18,08,10.10
2009,11,19,18,09,10.10
2009,11,19,18,10,10.10
2009,11,19,18,11,10.10
2009,11,19,18,12,10.10
2009,11,19,18,13,10.10
2009,11,19,18,14,10.10
2009,11,19,18,15,10.10
2009,11,19,18,16,10.10
2009,11,19,18,17,10.10
2009,11,19,18,18,10.20
2009,11,19,18,19,10.10
2009,11,19,18,20,10.20
2009,11,19,18,21,10.20
2009,11,19,18,22,10.20
2009,11,19,18,23,10.20
2009,11,19,18,24,10.20
2009,11,19,18,25,10.20
2009,11,19,18,26,10.30
2009,11,19,18,27,10.30
2009,11,19,18,28,10.30
2009,11,19,18,29,10.30
2009,11,19,18,30,10.30
2009,11,19,18,31,10.30
2009,11,19,18,32,10.40
2009,11,19,18,33,10.40
2009,11,19,18,34,10.40
2009,11,19,18,35,10.40
2009,11,19,18,36,10.40
2009,11,19,18,37,10.50
2009,11,19,18,38,10.50
2009,11,19,18,39,10.50
2009,11,19,18,40,10.50
2009,11,19,18,41,10.50
2009,11,19,18,42,10.50
2009,11,19,18,43,10.50
2009,11,19,18,44,10.50
2009,11,19,18,45,10.60
2009,11,19,18,46,10.60
2009,11,19,18,47,10.60
2009,11,19,18,48,10.70
2009,11,19,18,49,10.70
2009,11,19,18,50,10.70
2009,11,19,18,51,10.70
2009,11,19,18,55,10.70
2009,11,19,18,56,10.70
2009,11,19,18,57,10.70
2009,11,19,18,58,10.70
2009,11,19,18,59,10.60
2009,11,19,19,00,10.60
2009,11,19,19,01,10.60
2009,11,19,19,02,10.60
2009,11,19,19,03,10.60
2009,11,19,19,04,10.60
2009,11,19,19,05,10.60
2009,11,19,19,06,10.60
2009,11,19,19,07,10.70
2009,11,19,19,08,10.70
2009,11,19,19,09,10.70
2009,11,19,19,10,10.70
2009,11,19,19,11,10.70
2009,11,19,19,12,10.70
2009,11,19,19,13,10.80
2009,11,19,19,14,10.80
2009,11,19,19,15,10.80
2009,11,19,19,16,10.80
2009,11,19,19,17,10.80
2009,11,19,19,18,10.80
2009,11,19,19,19,10.80
2009,11,19,19,20,10.80
2009,11,19,19,21,10.80
2009,11,19,19,22,10.80
2009,11,19,19,23,10.80
2009,11,19,19,24,10.90
2009,11,19,19,25,10.90
2009,11,19,19,26,10.90
2009,11,19,19,27,10.90
2009,11,19,19,28,10.90
2009,11,19,19,29,10.90
2009,11,19,19,30,10.90
2009,11,19,19,31,10.90
2009,11,19,19,32,10.90
2009,11,19,19,33,10.90
2009,11,19,19,34,10.90
2009,11,19,19,35,10.90
2009,11,19,19,36,10.90
2009,11,19,19,37,10.90
2009,11,19,19,38,10.90
2009,11,19,19,39,10.90
2009,11,19,19,40,10.90
2009,11,19,19,41,10.90
2009,11,19,19,42,10.90
2009,11,19,19,43,10.90
2009,11,19,19,44,10.90
2009,11,19,19,45,10.90
2009,11,19,19,46,10.90
2009,11,19,19,47,11.00
2009,11,19,19,48,11.00
2009,11,19,19,49,11.00
2009,11,19,19,50,11.00
2009,11,19,19,51,11.00
2009,11,19,19,52,11.00
2009,11,19,19,53,11.10
2009,11,19,19,54,11.10
2009,11,19,19,55,11.10
2009,11,19,19,56,11.10
2009,11,19,19,57,11.10
2009,11,19,19,58,11.10
2009,11,19,19,59,11.10
2009,11,19,20,00,11.10
2009,11,19,20,01,11.10
2009,11,19,20,02,11.10
2009,11,19,20,03,11.10
2009,11,19,20,04,11.10
2009,11,19,20,05,11.10
2009,11,19,20,06,11.10
2009,11,19,20,07,11.10
2009,11,19,20,08,11.10
2009,11,19,20,09,11.10
2009,11,19,20,10,11.10
2009,11,19,20,11,11.10
2009,11,19,20,12,11.10
2009,11,19,20,13,11.10
2009,11,19,20,14,11.20
2009,11,19,20,15,11.20
2009,11,19,20,16,11.20
2009,11,19,20,17,11.20
2009,11,19,20,18,11.20
2009,11,19,20,19,11.20
2009,11,19,20,20,11.20
2009,11,19,20,21,11.20
2009,11,19,20,22,11.20
2009,11,19,20,23,11.20
2009,11,19,20,24,11.20
2009,11,19,20,25,11.20
2009,11,19,20,26,11.20
2009,11,19,20,27,11.30
2009,11,19,20,28,11.30
2009,11,19,20,29,11.30
2009,11,19,20,30,11.30
2009,11,19,20,31,11.30
2009,11,19,20,32,11.30
2009,11,19,20,33,11.30
2009,11,19,20,34,11.30
2009,11,19,20,35,11.40
2009,11,19,20,36,11.40
2009,11,19,20,37,11.40
2009,11,19,20,38,11.40
2009,11,19,20,39,11.40
2009,11,19,20,40,11.40
2009,11,19,20,41,11.40
2009,11,19,20,42,11.50
2009,11,19,20,43,11.50
2009,11,19,20,44,11.50
2009,11,19,20,45,11.50
2009,11,19,20,46,11.50
2009,11,19,20,47,11.50
2009,11,19,20,48,11.50
2009,11,19,20,49,11.60
2009,11,19,20,50,11.60
2009,11,19,20,51,11.60
2009,11,19,20,52,11.60
2009,11,19,20,53,11.60
2009,11,19,20,54,11.70
2009,11,19,20,55,11.70
2009,11,19,20,56,11.70
2009,11,19,20,57,11.70
2009,11,19,20,58,11.70
2009,11,19,20,59,11.70
2009,11,19,21,00,11.60
2009,11,19,21,01,11.60
2009,11,19,21,02,11.60
2009,11,19,21,03,11.60
2009,11,19,21,04,11.70
2009,11,19,21,05,11.70
2009,11,19,21,06,11.70
2009,11,19,21,07,11.70
2009,11,19,21,08,11.70
2009,11,19,21,09,11.70
2009,11,19,21,10,11.70
2009,11,19,21,11,11.60
2009,11,19,21,12,11.60
2009,11,19,21,13,11.60
2009,11,19,21,14,11.60
2009,11,19,21,15,11.60
2009,11,19,21,16,11.60
2009,11,19,21,17,11.60
2009,11,19,21,18,11.60
2009,11,19,21,19,11.60
2009,11,19,21,20,11.70
2009,11,19,21,21,11.70
2009,11,19,21,22,11.70
2009,11,19,21,23,11.70
2009,11,19,21,24,11.70
2009,11,19,21,25,11.60
2009,11,19,21,26,11.60
2009,11,19,21,27,11.60
2009,11,19,21,28,11.60
2009,11,19,21,29,11.60
2009,11,19,21,30,11.60
2009,11,19,21,31,11.60
2009,11,19,21,32,11.70
2009,11,19,21,33,11.70
2009,11,19,21,34,11.70
2009,11,19,21,35,11.70
2009,11,19,21,36,11.70
2009,11,19,21,37,11.70
2009,11,19,21,38,11.70
2009,11,19,21,39,11.70
2009,11,19,21,40,11.70
2009,11,19,21,41,11.70
2009,11,19,21,42,11.70
2009,11,19,21,43,11.70
2009,11,19,21,44,11.70
2009,11,19,21,45,11.70
2009,11,19,21,46,11.70
2009,11,19,21,47,11.70
2009,11,19,21,48,11.70
2009,11,19,21,49,11.70
2009,11,19,21,50,11.80
2009,11,19,21,51,11.80
2009,11,19,21,52,11.70
2009,11,19,21,53,11.70
2009,11,19,21,54,11.70
2009,11,19,21,55,11.70
2009,11,19,21,56,11.70
2009,11,19,21,57,11.70
2009,11,19,21,58,11.70
2009,11,19,21,59,11.70
2009,11,19,22,00,11.70
2009,11,19,22,01,11.70
2009,11,19,22,02,11.70
2009,11,19,22,03,11.80
2009,11,19,22,04,11.80
2009,11,19,22,05,11.80
2009,11,19,22,06,11.80
2009,11,19,22,07,11.80
2009,11,19,22,08,11.80
2009,11,19,22,09,11.70
2009,11,19,22,10,11.70
2009,11,19,22,11,11.80
2009,11,19,22,12,11.80
2009,11,19,22,13,11.70
2009,11,19,22,14,11.70
2009,11,19,22,15,11.70
2009,11,19,22,16,11.80
2009,11,19,22,17,11.80
2009,11,19,22,18,11.80
2009,11,19,22,19,11.80
2009,11,19,22,20,11.80
2009,11,19,22,21,11.70
2009,11,19,22,22,11.70
2009,11,19,22,23,11.70
2009,11,19,22,24,11.70
2009,11,19,22,25,11.70
2009,11,19,22,26,11.70
2009,11,19,22,27,11.70
2009,11,19,22,28,11.70
2009,11,19,22,29,11.70
2009,11,19,22,30,11.70
2009,11,19,22,31,11.70
2009,11,19,22,32,11.70
2009,11,19,22,33,11.80
2009,11,19,22,34,11.80
2009,11,19,22,35,11.80
2009,11,19,22,36,11.80
2009,11,19,22,37,11.80
2009,11,19,22,38,11.80
2009,11,19,22,39,11.80
2009,11,19,22,40,11.80
2009,11,19,22,41,11.80
2009,11,19,22,42,11.80
2009,11,19,22,43,11.80
2009,11,19,22,44,11.80
2009,11,19,22,45,11.80
2009,11,19,22,46,11.80